Simultaneous Nadir Overpasses (SNOs) Predictions

Prediction of SNOs between AQUA and METOP-A Satellite Orbit:

Table of predicted SNOs for the next 14.0 days since TLE Epoch: 9/25/2021
Index Date (AQUA) Time (AQUA) Lat,Lon (AQUA) SZA (AQUA ) Date (METOP-A) Time (METOP-A) Lat,Lon (METOP-A) SZA (METOP-A ) Distance(km) Time Diff (sec)
1 09/25/2021 22:07:34 77.34,-167.75 78.85 09/25/2021 22:06:30 77.26,-171.54 79.03 93.21 64
2 09/25/2021 22:57:10 -77.78, -1.94 100.61 09/25/2021 22:57:00 -77.77, -2.01 100.62 2.29 10
3 09/25/2021 23:46:38 77.83, 165.46 79.47 09/25/2021 23:47:39 77.80, 165.49 79.43 3.54 61
4 09/28/2021 17:41:54 77.53,-102.07 80.16 09/28/2021 17:40:46 77.44,-104.45 80.23 58.07 68
5 09/28/2021 18:31:26 -77.78, 64.48 99.53 09/28/2021 18:31:20 -77.77, 64.36 99.53 3.19 6
6 09/28/2021 19:20:54 77.84,-128.13 80.56 09/28/2021 19:21:59 77.81,-128.15 80.52 3.59 65
7 10/01/2021 13:16:13 77.68, -36.27 81.42 10/01/2021 13:15:02 77.61, -37.34 81.43 26.48 71
8 10/01/2021 14:05:42 -77.79, 130.87 98.44 10/01/2021 14:05:39 -77.82, 130.91 98.41 2.84 3
9 10/01/2021 14:55:10 77.85, -61.75 81.65 10/01/2021 14:56:18 77.85, -61.60 81.63 3.56 68
10 10/04/2021 08:50:30 77.79, 29.68 82.63 10/04/2021 08:49:17 77.79, 29.78 82.63 2.41 73
11 10/04/2021 09:39:57 -77.82,-162.79 97.34 10/04/2021 09:39:58 -77.82,-162.74 97.33 1.25 1
12 10/04/2021 10:29:24 77.83, 4.78 82.70 10/04/2021 10:30:37 77.85, 4.74 82.71 2.22 73
13 10/07/2021 04:24:45 77.78, 96.17 83.68 10/07/2021 04:23:37 77.78, 96.11 83.70 1.46 68
14 10/07/2021 05:14:12 -77.80, -96.29 96.28 10/07/2021 05:14:18 -77.82, -96.40 96.26 2.97 6



Historial Predications of SNOs between AQUA and METOP-A
